Location: Indian Hills
(32.9760°N, 85.9450°W)
Time: 01:57:33
(UTC+00:00)

SL-16 R/B - Pass Details

Date: 09 December 2019
Orbit: 840 x 849 km, 71.0° (Epoch: 28 January)

Event Time Altitude Azimuth Distance (km) Brightness Sun altitude
Exits shadow 11:21:58 22° 278° (W) 1,787 3.3 -15.0°
Maximum altitude 11:23:11 23° 259° (W) 1,713 3.3 -14.7°
Drops below altitude 10° 11:27:33 10° 208° (SSW) 2,460 4.5 -13.9°
Sets 11:30:27 0° 194° (SSW) 3,390 5.4 -13.3°
